| time (UTC) | temp F | wind direction | speed knots | gust knots | rain 1hr in | rain 24hr in | rain mn in | humidity % | barometer mb |
| 20260508114528 | 42 | 19 | 6.1 | 9.6 | 0.00 | 0.00 | 0.00 | 49 | 1019.9 |
| 20260508113028 | 42 | 5 | 7.0 | 8.7 | 0.00 | 0.00 | 0.00 | 48 | 1019.9 |
| 20260508111528 | 44 | 9 | 2.6 | 6.1 | 0.00 | 0.00 | 0.00 | 45 | 1019.9 |
| 20260508110033 | 46 | 5 | 0.0 | 7.0 | 0.00 | 0.00 | 0.00 | 43 | 1020.0 |
| 20260508104531 | 44 | 304 | 2.6 | 6.1 | 0.00 | 0.00 | 0.00 | 46 | 1020.1 |
| 20260508103041 | 44 | 269 | 1.7 | 4.3 | 0.00 | 0.00 | 0.00 | 46 | 1020.0 |
| 20260508101531 | 45 | 297 | 2.6 | 5.2 | 0.00 | 0.00 | 0.00 | 45 | 1019.8 |
| 20260508100032 | 42 | 298 | 2.6 | 9.6 | 0.00 | 0.00 | 0.00 | 49 | 1019.8 |
| 20260508094528 | 42 | 17 | 6.1 | 9.6 | 0.00 | 0.00 | 0.00 | 50 | 1019.6 |
| 20260508093036 | 43 | 14 | 7.8 | 10.4 | 0.00 | 0.00 | 0.00 | 48 | 1019.6 |
| 20260508091530 | 43 | 13 | 7.0 | 10.4 | 0.00 | 0.00 | 0.00 | 49 | 1019.6 |
| 20260508090037 | 44 | 12 | 7.8 | 10.4 | 0.00 | 0.00 | 0.00 | 47 | 1019.6 |
| 20260508084528 | 44 | 12 | 9.6 | 12.2 | 0.00 | 0.00 | 0.00 | 47 | 1019.8 |
| 20260508083030 | 44 | 13 | 7.8 | 11.3 | 0.00 | 0.00 | 0.00 | 48 | 1019.8 |
| 20260508081528 | 44 | 16 | 9.6 | 12.2 | 0.00 | 0.00 | 0.00 | 46 | 1020.0 |
| 20260508080029 | 44 | 5 | 9.6 | 11.3 | 0.00 | 0.00 | 0.00 | 46 | 1019.9 |
| 20260508074534 | 44 | 14 | 9.6 | 11.3 | 0.00 | 0.00 | 0.00 | 46 | 1020.0 |
| 20260508073030 | 45 | 360 | 7.8 | 10.4 | 0.00 | 0.00 | 0.00 | 45 | 1020.0 |
| 20260508071533 | 44 | 11 | 8.7 | 10.4 | 0.00 | 0.00 | 0.00 | 46 | 1020.1 |
| 20260508070030 | 44 | 16 | 8.7 | 10.4 | 0.00 | 0.00 | 0.00 | 47 | 1020.3 |
| 20260508064535 | 44 | 16 | 6.1 | 8.7 | 0.00 | 0.00 | 0.00 | 45 | 1020.3 |
| 20260508063030 | 44 | 355 | 3.5 | 10.4 | 0.00 | 0.00 | 0.00 | 46 | 1020.4 |
| 20260508061528 | 43 | 11 | 7.8 | 10.4 | 0.00 | 0.00 | 0.00 | 47 | 1020.3 |
| 20260508060033 | 45 | 11 | 3.5 | 7.0 | 0.00 | 0.00 | 0.00 | 44 | 1020.3 |
| 20260508054605 | 43 | 11 | 7.8 | 10.4 | 0.00 | 0.00 | 0.00 | 46 | 1020.3 |
| 20260508053043 | 45 | 15 | 8.7 | 9.6 | 0.00 | 0.00 | 0.00 | 44 | 1020.1 |
| 20260508051528 | 45 | 5 | 7.8 | 10.4 | 0.00 | 0.00 | 0.00 | 43 | 1020.3 |
| 20260508050030 | 46 | 15 | 8.7 | 10.4 | 0.00 | 0.00 | 0.00 | 42 | 1020.3 |
| 20260508044530 | 47 | 9 | 7.8 | 10.4 | 0.00 | 0.00 | 0.00 | 40 | 1020.4 |
| 20260508043035 | 48 | 5 | 8.7 | 12.2 | 0.00 | 0.00 | 0.00 | 39 | 1020.4 |
| 20260508041529 | 49 | 5 | 9.6 | 12.2 | 0.00 | 0.00 | 0.00 | 38 | 1020.3 |
| 20260508040033 | 50 | 5 | 8.7 | 11.3 | 0.00 | 0.00 | 0.00 | 36 | 1020.2 |
| 20260508034536 | 49 | 5 | 8.7 | 10.4 | 0.00 | 0.00 | 0.00 | 36 | 1020.2 |
| 20260508033033 | 53 | 5 | 7.8 | 10.4 | 0.00 | 0.00 | 0.00 | 32 | 1020.1 |
| 20260508031533 | 55 | 355 | 7.8 | 11.3 | 0.00 | 0.00 | 0.00 | 30 | 1019.9 |
| 20260508030030 | 55 | 341 | 7.0 | 12.2 | 0.00 | 0.00 | 0.00 | 30 | 1019.8 |
| 20260508024527 | 55 | 355 | 6.1 | 13.0 | 0.00 | 0.00 | 0.00 | 30 | 1019.6 |
| 20260508023027 | 56 | 346 | 6.1 | 10.4 | 0.00 | 0.00 | 0.00 | 30 | 1019.5 |
| 20260508021528 | 56 | 340 | 7.8 | 11.3 | 0.00 | 0.00 | 0.00 | 29 | 1019.4 |
| 20260508020031 | 57 | 327 | 7.0 | 13.0 | 0.00 | 0.00 | 0.00 | 28 | 1019.1 |
| 20260508014535 | 58 | 342 | 8.7 | 18.2 | 0.00 | 0.00 | 0.00 | 27 | 1019.0 |
| 20260508013028 | 59 | 318 | 9.6 | 17.4 | 0.00 | 0.00 | 0.00 | 26 | 1019.0 |
| 20260508011527 | 60 | 340 | 11.3 | 18.2 | 0.00 | 0.00 | 0.00 | 25 | 1018.9 |
| 20260508010044 | 61 | 299 | 14.8 | 22.6 | 0.00 | 0.00 | 0.00 | 25 | 1018.9 |
| 20260508004532 | 61 | 280 | 12.2 | 23.5 | 0.00 | 0.00 | 0.00 | 25 | 1018.7 |
| 20260508003027 | 62 | 298 | 17.4 | 24.3 | 0.00 | 0.00 | 0.00 | 24 | 1018.7 |
| 20260508001526 | 62 | 310 | 13.9 | 22.6 | 0.00 | 0.00 | 0.00 | 24 | 1018.6 |
| 20260508000027 | 63 | 286 | 14.8 | 21.7 | 0.00 | 0.00 | 0.00 | 23 | 1018.6 |
| 20260507234528 | 63 | 273 | 13.0 | 22.6 | 0.00 | 0.00 | 0.00 | 22 | 1018.7 |
| 20260507233030 | 64 | 267 | 13.0 | 23.5 | 0.00 | 0.00 | 0.00 | 22 | 1018.5 |
| 20260507231528 | 64 | 282 | 11.3 | 23.5 | 0.00 | 0.00 | 0.00 | 23 | 1018.6 |
| 20260507230038 | 64 | 303 | 13.0 | 24.3 | 0.00 | 0.00 | 0.00 | 21 | 1018.7 |
| 20260507224530 | 64 | 286 | 12.2 | 23.5 | 0.00 | 0.00 | 0.00 | 22 | 1018.6 |
| 20260507223028 | 63 | 236 | 10.4 | 20.9 | 0.00 | 0.00 | 0.00 | 23 | 1018.5 |
| 20260507221529 | 63 | 267 | 13.0 | 22.6 | 0.00 | 0.00 | 0.00 | 23 | 1018.8 |
| 20260507220029 | 63 | 217 | 13.0 | 24.3 | 0.00 | 0.00 | 0.00 | 22 | 1019.0 |
| 20260507214530 | 64 | 264 | 13.0 | 22.6 | 0.00 | 0.00 | 0.00 | 22 | 1019.3 |
| 20260507213030 | 63 | 242 | 12.2 | 20.0 | 0.00 | 0.00 | 0.00 | 23 | 1019.4 |
| 20260507211537 | 62 | 244 | 11.3 | 19.1 | 0.00 | 0.00 | 0.00 | 23 | 1019.6 |
| 20260507210027 | 62 | 296 | 11.3 | 21.7 | 0.00 | 0.00 | 0.00 | 23 | 1019.9 |
| 20260507204527 | 62 | 237 | 10.4 | 20.0 | 0.00 | 0.00 | 0.00 | 23 | 1020.1 |
| 20260507203035 | 61 | 235 | 8.7 | 15.6 | 0.00 | 0.00 | 0.00 | 23 | 1020.4 |
| 20260507201527 | 62 | 251 | 9.6 | 15.6 | 0.00 | 0.00 | 0.00 | 24 | 1020.6 |
| 20260507200028 | 60 | 260 | 7.0 | 15.6 | 0.00 | 0.00 | 0.00 | 24 | 1021.1 |
| 20260507194531 | 59 | 282 | 5.2 | 13.9 | 0.00 | 0.01 | 0.00 | 23 | 1021.4 |
| 20260507193034 | 60 | 228 | 7.0 | 13.9 | 0.00 | 0.01 | 0.00 | 23 | 1021.4 |
| 20260507191530 | 58 | 250 | 5.2 | 13.9 | 0.00 | 0.01 | 0.00 | 22 | 1021.5 |
| 20260507190028 | 57 | 281 | 5.2 | 14.8 | 0.00 | 0.01 | 0.00 | 24 | 1021.6 |
| 20260507184528 | 57 | 243 | 11.3 | 16.5 | 0.00 | 0.01 | 0.00 | 22 | 1021.8 |
| 20260507183041 | 56 | 256 | 5.2 | 13.0 | 0.00 | 0.01 | 0.00 | 24 | 1022.0 |
| 20260507181530 | 56 | 271 | 6.1 | 13.0 | 0.00 | 0.01 | 0.00 | 22 | 1022.1 |
| 20260507180033 | 55 | 267 | 8.7 | 13.9 | 0.00 | 0.01 | 0.00 | 21 | 1022.2 |
| 20260507174530 | 54 | 228 | 7.0 | 13.0 | 0.00 | 0.03 | 0.00 | 23 | 1022.4 |
| 20260507173030 | 54 | 238 | 6.1 | 12.2 | 0.00 | 0.03 | 0.00 | 24 | 1022.5 |
| 20260507171529 | 53 | 252 | 5.2 | 12.2 | 0.00 | 0.03 | 0.00 | 24 | 1022.7 |
| 20260507170028 | 52 | 263 | 5.2 | 11.3 | 0.00 | 0.03 | 0.00 | 24 | 1022.8 |
| 20260507164531 | 51 | 178 | 3.5 | 8.7 | 0.00 | 0.04 | 0.00 | 24 | 1023.0 |
| 20260507163027 | 50 | 233 | 5.2 | 9.6 | 0.00 | 0.04 | 0.00 | 26 | 1023.2 |
| 20260507161539 | 49 | 255 | 5.2 | 8.7 | 0.00 | 0.04 | 0.00 | 26 | 1023.3 |
| 20260507160040 | 48 | 261 | 2.6 | 7.8 | 0.00 | 0.04 | 0.00 | 28 | 1023.4 |
| 20260507154531 | 47 | 216 | 3.5 | 8.7 | 0.00 | 0.04 | 0.00 | 28 | 1023.5 |
| 20260507153031 | 47 | 279 | 4.3 | 7.8 | 0.00 | 0.04 | 0.00 | 28 | 1023.5 |
| 20260507151528 | 46 | 253 | 1.7 | 6.1 | 0.00 | 0.04 | 0.00 | 27 | 1023.7 |
| 20260507150030 | 46 | 279 | 1.7 | 6.1 | 0.00 | 0.04 | 0.00 | 28 | 1023.8 |
| 20260507144534 | 45 | 275 | 1.7 | 5.2 | 0.00 | 0.04 | 0.00 | 30 | 1023.8 |
| 20260507143029 | 44 | 266 | 2.6 | 3.5 | 0.00 | 0.04 | 0.00 | 30 | 1023.8 |
| 20260507141527 | 46 | 298 | 1.7 | 3.5 | 0.00 | 0.04 | 0.00 | 27 | 1023.8 |
| 20260507140029 | 44 | 73 | 0.9 | 2.6 | 0.00 | 0.04 | 0.00 | 27 | 1023.8 |
| 20260507134528 | 41 | 25 | 2.6 | 4.3 | 0.00 | 0.04 | 0.00 | 33 | 1023.7 |
| 20260507133028 | 38 | 36 | 4.3 | 7.8 | 0.00 | 0.04 | 0.00 | 36 | 1023.5 |
| 20260507131532 | 35 | 36 | 5.2 | 7.8 | 0.00 | 0.04 | 0.00 | 40 | 1023.1 |
| 20260507130028 | 31 | 34 | 5.2 | 8.7 | 0.00 | 0.04 | 0.00 | 43 | 1023.2 |
| 20260507124545 | 28 | 34 | 5.2 | 8.7 | 0.00 | 0.04 | 0.00 | 47 | 1023.2 |
| 20260507123030 | 28 | 34 | 6.1 | 8.7 | 0.00 | 0.04 | 0.00 | 46 | 1023.2 |
| 20260507121528 | 27 | 35 | 7.0 | 9.6 | 0.00 | 0.04 | 0.00 | 48 | 1023.1 |
| 20260507120028 | 25 | 37 | 6.1 | 8.7 | 0.00 | 0.04 | 0.00 | 52 | 1022.9 |